User: anonymous   Login
Location: Unspecified
(0.0000°N, 0.0000°E)
Time: 01:59:36
(UTC+00:00)
Language:

FORMOSAT 3F - Orbit

View from above orbital plane
View from above orbital plane
View from above satellite
View from above satellite

Ground track
Ground track

The orbit data is extracted from the following two-line orbital elements,

1 29052U 06011F   17147.80282063 +.00000055 +00000-0 +37818-4 0  9996
2 29052 072.0344 281.2964 0039457 144.1248 216.2551 14.28682278581020
Epoch (UTC): 27 May 2017 19:16:03
Eccentricity: 0.0039457
inclination: 72.0344°
perigee height: 768 km
apogee height: 824 km
right ascension of ascending node: 281.2964°
argument of perigee: 144.1248°
revolutions per day: 14.28682278
mean anomaly at epoch: 216.2551°
orbit number at epoch: 58102

The dashed part of the orbit path shows where the satellite is in the earth's shadow,  

DLR